Погода в Амоле

Иран     36°27′57″N   52°21′13″E
темп.,
°C
ветер,
м/с
пор.,
м/с
влажн.,
%
обл.,
%
осадки,
мм/ч
давл.,
гПа
погр.,
м
16 мая, вс
вс1601:30+19ююв117575 0.0 101311
04:30+18вюв11785 0.0 101411
07:30+21вюв11652 0.0 101490
10:30+26ссв32520 0.0 1014783
13:30+26с43501 0.1 1013875
16:30+26ссв325138 0.3 1013625
19:30+21с23650 0.0 101271
22:30+20юв22600 0.0 101120
17 мая, пн
пн1701:30+20вюв11530 0.0 101011
04:30+19юв01550 0.0 101011
07:30+22в11510 0.0 101168
10:30+28ссв32410 0.0 1010503
13:30+30ссв43360 0.0 1009711
16:30+28ссв32402 0.0 1009378
19:30+24в22545 0.0 100826
22:30+23юв224690 0.0 100819
18 мая, вт
вт1801:30+21з22546 0.0 100720
04:30+22юв11460 0.0 100611
07:30+27юв22365 0.0 100552
10:30+35в45225 0.0 1004513
13:30+34ссз3227100 0.0 1003463
16:30+29с113986 0.0 1004158
19:30+24ссз1252100 0.0 1007106
22:30+21зсз5126716 0.0 1008272
19 мая, ср
ср1901:30+20з4873100 0.0 1010281
04:30+18з24824 0.0 1011147
07:30+21всв11640 0.0 1013165
10:30+24сз44580 0.0 1014667
13:30+25сз55560 0.0 1014682
16:30+24ссз44580 0.0 1015519
19:30+21ссз11720 0.0 101677
22:30+19вюв11800 0.0 101712
20 мая, чт
чт2001:30+19вюв12770 0.0 101712
04:30+18юв22740 0.0 101712
07:30+21в11650 0.0 1019126
10:30+26ссв33470 0.0 1018767
13:30+28с44410 0.0 1017925
16:30+27ссв43450 0.0 1016717
19:30+23ссв23620 0.0 1016100
22:30+20вюв22640 0.0 101616